Time,TemperatureF,DewpointF,PressureIn,WindDirection,WindDirectionDegrees,WindSpeedMPH,WindSpeedGustMPH,Humidity,HourlyPrecipIn,Conditions,Clouds,dailyrainin,SoftwareType,DateUTC
2013-06-15 00:01:00,57.5,54.3,29.99,NW,315,0.0,13.0,89,0.00,,,0.00,VWS V14.01,2013-06-15 04:01:00,
2013-06-15 00:02:00,57.5,54.3,29.99,NW,315,0.0,13.0,89,0.00,,,0.00,VWS V14.01,2013-06-15 04:02:00,
2013-06-15 00:05:00,57.3,54.1,30.00,NW,315,0.0,13.0,89,0.00,,,0.00,VWS V14.01,2013-06-15 04:05:00,
2013-06-15 00:10:00,57.3,54.1,30.00,NW,315,0.0,13.0,89,0.00,,,0.00,VWS V14.01,2013-06-15 04:10:00,
2013-06-15 00:15:00,57.2,54.3,30.00,NW,315,0.0,13.0,90,0.00,,,0.00,VWS V14.01,2013-06-15 04:15:00,
2013-06-15 00:21:00,57.2,54.3,30.00,NW,315,0.0,13.0,90,0.00,,,0.00,VWS V14.01,2013-06-15 04:21:00,
2013-06-15 00:26:00,57.2,54.3,30.00,NW,315,0.0,13.0,90,0.00,,,0.00,VWS V14.01,2013-06-15 04:26:00,
2013-06-15 00:31:00,57.0,54.1,30.00,NW,315,0.0,13.0,90,0.00,,,0.00,VWS V14.01,2013-06-15 04:31:00,
2013-06-15 00:36:00,57.0,54.4,30.00,NW,315,0.0,13.0,91,0.00,,,0.00,VWS V14.01,2013-06-15 04:36:00,
2013-06-15 00:41:00,57.0,54.4,30.00,NW,315,0.0,13.0,91,0.00,,,0.00,VWS V14.01,2013-06-15 04:41:00,
2013-06-15 00:46:00,56.9,54.3,30.00,NW,315,0.0,13.0,91,0.00,,,0.00,VWS V14.01,2013-06-15 04:46:00,
2013-06-15 00:51:00,56.9,54.3,30.00,NW,315,0.0,13.0,91,0.00,,,0.00,VWS V14.01,2013-06-15 04:51:00,
2013-06-15 00:56:00,56.9,54.3,30.00,NW,315,0.0,13.0,91,0.00,,,0.00,VWS V14.01,2013-06-15 04:56:00,
2013-06-15 01:01:00,56.7,54.1,30.00,NW,315,0.0,13.0,91,0.00,,,0.00,VWS V14.01,2013-06-15 05:01:00,
2013-06-15 01:06:00,56.6,54.0,30.00,NW,315,0.0,13.0,91,0.00,,,0.00,VWS V14.01,2013-06-15 05:06:00,
2013-06-15 01:11:00,56.6,54.0,30.00,NW,315,0.0,13.0,91,0.00,,,0.00,VWS V14.01,2013-06-15 05:11:00,
2013-06-15 01:16:00,56.5,54.2,30.00,NW,315,0.0,13.0,92,0.00,,,0.00,VWS V14.01,2013-06-15 05:16:00,
2013-06-15 01:21:00,56.5,54.2,29.99,NW,315,0.0,13.0,92,0.00,,,0.00,VWS V14.01,2013-06-15 05:21:00,
2013-06-15 01:26:00,56.5,54.2,29.99,NW,315,0.0,13.0,92,0.00,,,0.00,VWS V14.01,2013-06-15 05:26:00,
2013-06-15 01:31:00,56.5,54.2,29.99,NW,315,0.0,13.0,92,0.00,,,0.00,VWS V14.01,2013-06-15 05:31:00,
2013-06-15 01:36:00,56.5,54.2,29.99,NW,315,0.0,13.0,92,0.00,,,0.00,VWS V14.01,2013-06-15 05:36:00,
2013-06-15 01:41:00,56.3,54.0,29.99,NW,315,0.0,13.0,92,0.00,,,0.00,VWS V14.01,2013-06-15 05:41:00,
2013-06-15 01:46:00,56.3,54.0,29.99,NW,315,0.0,13.0,92,0.00,,,0.00,VWS V14.01,2013-06-15 05:46:00,
2013-06-15 01:51:00,56.3,54.0,29.98,NW,315,0.0,13.0,92,0.00,,,0.00,VWS V14.01,2013-06-15 05:51:00,
2013-06-15 01:56:00,56.3,54.0,29.98,NW,315,0.0,13.0,92,0.00,,,0.00,VWS V14.01,2013-06-15 05:56:00,
2013-06-15 02:01:00,56.3,54.0,29.98,NW,315,0.0,13.0,92,0.00,,,0.00,VWS V14.01,2013-06-15 06:01:00,
2013-06-15 02:06:00,56.2,53.9,29.98,NW,315,0.0,13.0,92,0.00,,,0.00,VWS V14.01,2013-06-15 06:06:00,
2013-06-15 02:12:00,56.2,53.9,29.98,NW,315,0.0,13.0,92,0.00,,,0.00,VWS V14.01,2013-06-15 06:12:00,
2013-06-15 02:17:00,56.0,54.0,29.98,NW,315,0.0,13.0,93,0.00,,,0.00,VWS V14.01,2013-06-15 06:17:00,
2013-06-15 02:22:00,56.0,54.0,29.98,NW,315,0.0,13.0,93,0.00,,,0.00,VWS V14.01,2013-06-15 06:22:00,
2013-06-15 02:27:00,55.9,53.6,29.98,NW,315,0.0,13.0,92,0.00,,,0.00,VWS V14.01,2013-06-15 06:27:00,
2013-06-15 02:32:00,55.9,53.9,29.98,NW,315,0.0,13.0,93,0.00,,,0.00,VWS V14.01,2013-06-15 06:32:00,
2013-06-15 02:37:00,55.7,53.7,29.98,NW,315,0.0,13.0,93,0.00,,,0.00,VWS V14.01,2013-06-15 06:37:00,
2013-06-15 02:42:00,55.7,53.7,29.98,NW,315,1.0,13.0,93,0.00,,,0.00,VWS V14.01,2013-06-15 06:42:00,
2013-06-15 02:47:00,55.7,53.7,29.98,NW,315,0.0,13.0,93,0.00,,,0.00,VWS V14.01,2013-06-15 06:47:00,
2013-06-15 02:52:00,55.6,53.6,29.98,NW,315,1.0,13.0,93,0.00,,,0.00,VWS V14.01,2013-06-15 06:52:00,
2013-06-15 02:57:00,55.6,53.6,29.98,NW,315,0.0,13.0,93,0.00,,,0.00,VWS V14.01,2013-06-15 06:57:00,
2013-06-15 03:02:00,55.4,53.4,29.98,NW,315,0.0,13.0,93,0.00,,,0.00,VWS V14.01,2013-06-15 07:02:00,
2013-06-15 03:07:00,55.4,53.4,29.98,NW,315,0.0,13.0,93,0.00,,,0.00,VWS V14.01,2013-06-15 07:07:00,
2013-06-15 03:12:00,55.4,53.4,29.98,NW,315,0.0,13.0,93,0.00,,,0.00,VWS V14.01,2013-06-15 07:12:00,
2013-06-15 03:17:00,55.3,53.3,29.98,NW,315,0.0,13.0,93,0.00,,,0.00,VWS V14.01,2013-06-15 07:17:00,
2013-06-15 03:22:00,55.3,53.3,29.97,NW,315,0.0,13.0,93,0.00,,,0.00,VWS V14.01,2013-06-15 07:22:00,
2013-06-15 03:27:00,55.3,53.3,29.97,NW,315,0.0,13.0,93,0.00,,,0.00,VWS V14.01,2013-06-15 07:27:00,
2013-06-15 03:32:00,55.3,53.6,29.97,NW,315,0.0,13.0,94,0.00,,,0.00,VWS V14.01,2013-06-15 07:32:00,
2013-06-15 03:37:00,55.1,53.1,29.97,NW,315,0.0,13.0,93,0.00,,,0.00,VWS V14.01,2013-06-15 07:37:00,
2013-06-15 03:42:00,55.0,53.0,29.97,NW,315,0.0,13.0,93,0.00,,,0.00,VWS V14.01,2013-06-15 07:42:00,
2013-06-15 03:47:00,55.0,53.0,29.97,NW,315,0.0,13.0,93,0.00,,,0.00,VWS V14.01,2013-06-15 07:47:00,
2013-06-15 03:52:00,55.0,53.0,29.97,NW,315,0.0,13.0,93,0.00,,,0.00,VWS V14.01,2013-06-15 07:52:00,
2013-06-15 03:57:00,55.0,53.3,29.97,NW,315,0.0,13.0,94,0.00,,,0.00,VWS V14.01,2013-06-15 07:57:00,
2013-06-15 04:03:00,54.8,52.8,29.97,NW,315,0.0,13.0,93,0.00,,,0.00,VWS V14.01,2013-06-15 08:03:00,
2013-06-15 04:08:00,54.8,53.1,29.97,NW,315,0.0,13.0,94,0.00,,,0.00,VWS V14.01,2013-06-15 08:08:00,
2013-06-15 04:13:00,54.7,53.0,29.97,NW,315,0.0,13.0,94,0.00,,,0.00,VWS V14.01,2013-06-15 08:13:00,
2013-06-15 04:18:00,54.7,53.0,29.97,NW,315,0.0,13.0,94,0.00,,,0.00,VWS V14.01,2013-06-15 08:18:00,
2013-06-15 04:23:00,54.7,53.0,29.97,NW,315,0.0,13.0,94,0.00,,,0.00,VWS V14.01,2013-06-15 08:23:00,
2013-06-15 04:28:00,54.7,53.0,29.97,NW,315,0.0,13.0,94,0.00,,,0.00,VWS V14.01,2013-06-15 08:28:00,
2013-06-15 04:33:00,54.7,53.0,29.97,NW,315,0.0,13.0,94,0.00,,,0.00,VWS V14.01,2013-06-15 08:33:00,
2013-06-15 04:38:00,54.5,52.8,29.98,NW,315,0.0,13.0,94,0.00,,,0.00,VWS V14.01,2013-06-15 08:38:00,
2013-06-15 04:43:00,54.4,52.7,29.98,NW,315,0.0,13.0,94,0.00,,,0.00,VWS V14.01,2013-06-15 08:43:00,
2013-06-15 04:48:00,54.5,52.8,29.98,NW,315,0.0,13.0,94,0.00,,,0.00,VWS V14.01,2013-06-15 08:48:00,
2013-06-15 04:53:00,54.5,52.8,29.99,NW,315,0.0,13.0,94,0.00,,,0.00,VWS V14.01,2013-06-15 08:53:00,
2013-06-15 04:58:00,54.5,53.1,29.99,NW,315,0.0,13.0,95,0.00,,,0.00,VWS V14.01,2013-06-15 08:58:00,
2013-06-15 05:03:00,54.7,53.3,29.99,NW,315,1.0,13.0,95,0.00,,,0.00,VWS V14.01,2013-06-15 09:03:00,
2013-06-15 05:08:00,54.7,53.3,29.99,NW,315,0.0,13.0,95,0.00,,,0.00,VWS V14.01,2013-06-15 09:08:00,
2013-06-15 05:13:00,54.7,53.3,29.99,NW,315,0.0,13.0,95,0.00,,,0.00,VWS V14.01,2013-06-15 09:13:00,
2013-06-15 05:18:00,54.8,53.4,29.99,NW,315,0.0,13.0,95,0.00,,,0.00,VWS V14.01,2013-06-15 09:18:00,
2013-06-15 05:23:00,54.8,53.4,29.99,NW,315,0.0,13.0,95,0.00,,,0.00,VWS V14.01,2013-06-15 09:23:00,
2013-06-15 05:28:00,54.8,53.4,29.99,NW,315,0.0,13.0,95,0.00,,,0.00,VWS V14.01,2013-06-15 09:28:00,
2013-06-15 05:33:00,54.8,53.4,29.99,NW,315,0.0,13.0,95,0.00,,,0.00,VWS V14.01,2013-06-15 09:33:00,
2013-06-15 05:38:00,54.8,53.4,29.99,NW,315,0.0,13.0,95,0.00,,,0.00,VWS V14.01,2013-06-15 09:38:00,
2013-06-15 05:43:00,54.8,53.4,29.99,NW,315,0.0,13.0,95,0.00,,,0.00,VWS V14.01,2013-06-15 09:43:00,
2013-06-15 05:48:00,54.8,53.4,29.99,NW,315,0.0,13.0,95,0.00,,,0.00,VWS V14.01,2013-06-15 09:48:00,
2013-06-15 05:53:00,54.8,53.4,30.00,NW,315,0.0,13.0,95,0.00,,,0.00,VWS V14.01,2013-06-15 09:53:00,
2013-06-15 05:59:00,54.8,53.4,30.00,NW,315,0.0,13.0,95,0.00,,,0.00,VWS V14.01,2013-06-15 09:59:00,
2013-06-15 06:04:00,55.0,53.6,30.00,NW,315,0.0,13.0,95,0.00,,,0.00,VWS V14.01,2013-06-15 10:04:00,
2013-06-15 06:09:00,54.8,53.4,30.01,NW,315,0.0,13.0,95,0.00,,,0.00,VWS V14.01,2013-06-15 10:09:00,
2013-06-15 06:14:00,54.8,53.4,30.01,NW,315,0.0,13.0,95,0.00,,,0.00,VWS V14.01,2013-06-15 10:14:00,
2013-06-15 06:19:00,54.8,53.4,30.01,NW,315,0.0,13.0,95,0.00,,,0.00,VWS V14.01,2013-06-15 10:19:00,
2013-06-15 06:24:00,54.5,53.1,30.02,NW,315,0.0,13.0,95,0.00,,,0.00,VWS V14.01,2013-06-15 10:24:00,
2013-06-15 06:29:00,54.5,53.1,30.02,NW,315,0.0,13.0,95,0.00,,,0.00,VWS V14.01,2013-06-15 10:29:00,
2013-06-15 06:34:00,54.7,53.3,30.02,NW,315,0.0,13.0,95,0.00,,,0.00,VWS V14.01,2013-06-15 10:34:00,
2013-06-15 06:39:00,54.7,53.3,30.03,NW,315,0.0,13.0,95,0.00,,,0.00,VWS V14.01,2013-06-15 10:39:00,
2013-06-15 06:44:00,54.5,53.1,30.03,NW,315,0.0,13.0,95,0.00,,,0.00,VWS V14.01,2013-06-15 10:44:00,
2013-06-15 06:49:00,54.5,53.1,30.03,NW,315,0.0,13.0,95,0.00,,,0.00,VWS V14.01,2013-06-15 10:49:00,
2013-06-15 06:54:00,54.5,53.1,30.03,NW,315,0.0,13.0,95,0.00,,,0.00,VWS V14.01,2013-06-15 10:54:00,
2013-06-15 06:59:00,54.5,53.1,30.03,NW,315,0.0,13.0,95,0.00,,,0.00,VWS V14.01,2013-06-15 10:59:00,
2013-06-15 07:04:00,54.7,53.3,30.03,NW,315,0.0,13.0,95,0.00,,,0.00,VWS V14.01,2013-06-15 11:04:00,
2013-06-15 07:09:00,54.7,53.3,30.03,NW,315,0.0,13.0,95,0.00,,,0.00,VWS V14.01,2013-06-15 11:09:00,
2013-06-15 07:14:00,54.8,53.4,30.03,NW,315,0.0,13.0,95,0.00,,,0.00,VWS V14.01,2013-06-15 11:14:00,
2013-06-15 07:19:00,55.0,53.6,30.03,NW,315,0.0,13.0,95,0.00,,,0.00,VWS V14.01,2013-06-15 11:19:00,
2013-06-15 07:24:00,55.1,53.7,30.04,NW,315,0.0,13.0,95,0.00,,,0.00,VWS V14.01,2013-06-15 11:24:00,
2013-06-15 07:29:00,55.3,53.9,30.04,NW,315,0.0,13.0,95,0.00,,,0.00,VWS V14.01,2013-06-15 11:29:00,
2013-06-15 07:34:00,55.4,54.0,30.04,NW,315,0.0,13.0,95,0.00,,,0.00,VWS V14.01,2013-06-15 11:34:00,
2013-06-15 07:39:00,55.7,54.3,30.05,NW,315,0.0,13.0,95,0.00,,,0.00,VWS V14.01,2013-06-15 11:39:00,
2013-06-15 07:44:00,56.0,54.6,30.05,NW,315,0.0,13.0,95,0.00,,,0.00,VWS V14.01,2013-06-15 11:44:00,
2013-06-15 07:50:00,56.3,54.9,30.05,NW,315,0.0,13.0,95,0.00,,,0.00,VWS V14.01,2013-06-15 11:50:00,
2013-06-15 07:55:00,56.6,55.2,30.04,NW,315,0.0,13.0,95,0.00,,,0.00,VWS V14.01,2013-06-15 11:55:00,
2013-06-15 08:00:00,56.7,55.3,30.04,NW,315,0.0,13.0,95,0.00,,,0.00,VWS V14.01,2013-06-15 12:00:00,
2013-06-15 08:05:00,57.0,55.6,30.04,South,184,0.0,13.0,95,0.00,,,0.00,VWS V14.01,2013-06-15 12:05:00,
2013-06-15 08:10:00,57.3,55.9,30.05,South,184,0.0,13.0,95,0.00,,,0.00,VWS V14.01,2013-06-15 12:10:00,
2013-06-15 08:15:00,57.6,56.2,30.05,West,263,1.0,13.0,95,0.00,,,0.00,VWS V14.01,2013-06-15 12:15:00,
2013-06-15 08:20:00,58.1,56.4,30.05,West,263,0.0,13.0,94,0.00,,,0.00,VWS V14.01,2013-06-15 12:20:00,
2013-06-15 08:25:00,58.4,56.4,30.06,West,263,0.0,13.0,93,0.00,,,0.00,VWS V14.01,2013-06-15 12:25:00,
2013-06-15 08:30:00,58.6,56.3,30.06,West,263,0.0,13.0,92,0.00,,,0.00,VWS V14.01,2013-06-15 12:30:00,
2013-06-15 08:35:00,58.9,56.3,30.06,West,263,0.0,13.0,91,0.00,,,0.00,VWS V14.01,2013-06-15 12:35:00,
2013-06-15 08:40:00,59.3,56.4,30.06,West,263,2.0,13.0,90,0.00,,,0.00,VWS V14.01,2013-06-15 12:40:00,
2013-06-15 08:45:00,59.6,56.4,30.06,West,263,0.0,13.0,89,0.00,,,0.00,VWS V14.01,2013-06-15 12:45:00,
2013-06-15 08:50:00,59.9,56.3,30.06,West,263,0.0,13.0,88,0.00,,,0.00,VWS V14.01,2013-06-15 12:50:00,
2013-06-15 08:55:00,60.2,56.3,30.06,West,263,1.0,13.0,87,0.00,,,0.00,VWS V14.01,2013-06-15 12:55:00,
2013-06-15 09:00:00,60.7,56.2,30.06,West,263,2.0,13.0,85,0.00,,,0.00,VWS V14.01,2013-06-15 13:00:00,
2013-06-15 09:05:00,61.0,56.1,30.06,West,263,0.0,13.0,84,0.00,,,0.00,VWS V14.01,2013-06-15 13:05:00,
2013-06-15 09:10:00,61.3,56.4,30.07,West,263,0.0,13.0,84,0.00,,,0.00,VWS V14.01,2013-06-15 13:10:00,
2013-06-15 09:15:00,61.6,56.4,30.07,West,263,0.0,13.0,83,0.00,,,0.00,VWS V14.01,2013-06-15 13:15:00,
2013-06-15 09:20:00,62.0,56.5,30.08,NNW,327,2.0,13.0,82,0.00,,,0.00,VWS V14.01,2013-06-15 13:20:00,
2013-06-15 09:25:00,62.4,56.2,30.08,NNW,327,0.0,13.0,80,0.00,,,0.00,VWS V14.01,2013-06-15 13:25:00,
2013-06-15 09:30:00,63.1,56.5,30.08,NNW,327,0.0,13.0,79,0.00,,,0.00,VWS V14.01,2013-06-15 13:30:00,
2013-06-15 09:36:00,63.5,57.2,30.08,NNW,327,0.0,13.0,80,0.00,,,0.00,VWS V14.01,2013-06-15 13:36:00,
2013-06-15 09:41:00,64.0,55.6,30.08,NNW,327,0.0,13.0,74,0.00,,,0.00,VWS V14.01,2013-06-15 13:41:00,
2013-06-15 09:46:00,64.7,57.0,30.08,NNW,327,0.0,13.0,76,0.00,,,0.00,VWS V14.01,2013-06-15 13:46:00,
2013-06-15 09:51:00,65.3,56.0,30.07,NNW,332,0.0,13.0,72,0.00,,,0.00,VWS V14.01,2013-06-15 13:51:00,
2013-06-15 09:56:00,65.8,56.9,30.07,NNW,332,0.0,13.0,73,0.00,,,0.00,VWS V14.01,2013-06-15 13:56:00,
2013-06-15 10:01:00,66.3,57.0,30.07,NNW,332,0.0,13.0,72,0.00,,,0.00,VWS V14.01,2013-06-15 14:01:00,
2013-06-15 10:06:00,66.4,57.1,30.07,WNW,299,0.0,13.0,72,0.00,,,0.00,VWS V14.01,2013-06-15 14:06:00,
2013-06-15 10:11:00,66.6,57.3,30.07,West,269,0.0,13.0,72,0.00,,,0.00,VWS V14.01,2013-06-15 14:11:00,
2013-06-15 10:16:00,66.8,56.3,30.07,WSW,257,0.0,13.0,69,0.00,,,0.00,VWS V14.01,2013-06-15 14:16:00,
2013-06-15 10:21:00,67.1,57.4,30.06,West,265,0.0,13.0,71,0.00,,,0.00,VWS V14.01,2013-06-15 14:21:00,
2013-06-15 10:26:00,67.3,57.6,30.06,WNW,284,0.0,13.0,71,0.00,,,0.00,VWS V14.01,2013-06-15 14:26:00,
2013-06-15 10:31:00,67.6,58.3,30.06,West,274,0.0,13.0,72,0.00,,,0.00,VWS V14.01,2013-06-15 14:31:00,
2013-06-15 10:36:00,67.8,57.7,30.06,West,259,4.0,13.0,70,0.00,,,0.00,VWS V14.01,2013-06-15 14:36:00,
2013-06-15 10:41:00,68.3,58.2,30.06,West,260,0.0,13.0,70,0.00,,,0.00,VWS V14.01,2013-06-15 14:41:00,
2013-06-15 10:46:00,68.4,57.8,30.06,WSW,244,2.0,13.0,69,0.00,,,0.00,VWS V14.01,2013-06-15 14:46:00,
2013-06-15 10:51:00,68.4,57.4,30.05,West,275,3.0,13.0,68,0.00,,,0.00,VWS V14.01,2013-06-15 14:51:00,
2013-06-15 10:56:00,68.8,57.4,30.05,West,261,1.0,13.0,67,0.00,,,0.00,VWS V14.01,2013-06-15 14:56:00,
2013-06-15 11:01:00,69.1,57.7,30.05,West,265,0.0,13.0,67,0.00,,,0.00,VWS V14.01,2013-06-15 15:01:00,
2013-06-15 11:06:00,69.4,58.4,30.05,West,265,0.0,13.0,68,0.00,,,0.00,VWS V14.01,2013-06-15 15:06:00,
2013-06-15 11:11:00,69.8,57.9,30.05,West,265,3.0,13.0,66,0.00,,,0.00,VWS V14.01,2013-06-15 15:11:00,
2013-06-15 11:16:00,70.3,58.0,30.05,West,263,0.0,13.0,65,0.00,,,0.00,VWS V14.01,2013-06-15 15:16:00,
2013-06-15 11:21:00,70.8,58.0,30.05,West,263,1.0,13.0,64,0.00,,,0.00,VWS V14.01,2013-06-15 15:21:00,
2013-06-15 11:26:00,71.1,57.9,30.05,West,269,1.0,13.0,63,0.00,,,0.00,VWS V14.01,2013-06-15 15:26:00,
2013-06-15 11:31:00,71.8,58.5,30.05,WNW,292,1.0,13.0,63,0.00,,,0.00,VWS V14.01,2013-06-15 15:31:00,
2013-06-15 11:36:00,72.3,55.7,30.05,West,261,0.0,13.0,56,0.00,,,0.00,VWS V14.01,2013-06-15 15:36:00,
2013-06-15 11:41:00,72.7,56.1,30.05,West,269,0.0,13.0,56,0.00,,,0.00,VWS V14.01,2013-06-15 15:41:00,
2013-06-15 11:46:00,73.3,56.7,30.05,West,265,2.0,13.0,56,0.00,,,0.00,VWS V14.01,2013-06-15 15:46:00,
2013-06-15 11:51:00,74.0,57.8,30.04,West,265,1.0,13.0,57,0.00,,,0.00,VWS V14.01,2013-06-15 15:51:00,
2013-06-15 11:57:00,74.7,58.0,30.04,West,265,0.0,13.0,56,0.00,,,0.00,VWS V14.01,2013-06-15 15:57:00,
2013-06-15 12:02:00,75.4,56.0,30.04,West,265,0.0,13.0,51,0.00,,,0.00,VWS V14.01,2013-06-15 16:02:00,
2013-06-15 12:07:00,76.0,57.1,30.04,West,265,0.0,13.0,52,0.00,,,0.00,VWS V14.01,2013-06-15 16:07:00,
2013-06-15 12:12:00,76.5,57.6,30.04,West,265,0.0,13.0,52,0.00,,,0.00,VWS V14.01,2013-06-15 16:12:00,
2013-06-15 12:17:00,77.0,59.1,30.04,West,265,0.0,13.0,54,0.00,,,0.00,VWS V14.01,2013-06-15 16:17:00,
2013-06-15 12:22:00,77.7,57.6,30.03,West,265,1.0,13.0,50,0.00,,,0.00,VWS V14.01,2013-06-15 16:22:00,
2013-06-15 12:27:00,78.5,56.0,30.03,SW,227,2.0,13.0,46,0.00,,,0.00,VWS V14.01,2013-06-15 16:27:00,
2013-06-15 12:32:00,78.8,52.5,30.03,SW,219,1.0,13.0,40,0.00,,,0.00,VWS V14.01,2013-06-15 16:32:00,
2013-06-15 12:37:00,79.0,55.2,30.03,SW,221,1.0,13.0,44,0.00,,,0.00,VWS V14.01,2013-06-15 16:37:00,
2013-06-15 12:42:00,78.8,55.1,30.03,WNW,286,0.0,13.0,44,0.00,,,0.00,VWS V14.01,2013-06-15 16:42:00,
2013-06-15 12:47:00,79.8,54.7,30.03,WNW,287,0.0,13.0,42,0.00,,,0.00,VWS V14.01,2013-06-15 16:47:00,
2013-06-15 12:52:00,79.9,52.8,30.03,NW,318,2.0,13.0,39,0.00,,,0.00,VWS V14.01,2013-06-15 16:52:00,
2013-06-15 12:57:00,80.1,52.9,30.03,NW,318,2.0,13.0,39,0.00,,,0.00,VWS V14.01,2013-06-15 16:57:00,
2013-06-15 13:02:00,80.7,54.2,30.03,SW,227,1.0,13.0,40,0.00,,,0.00,VWS V14.01,2013-06-15 17:02:00,
2013-06-15 13:07:00,80.1,55.6,30.03,West,273,0.0,13.0,43,0.00,,,0.00,VWS V14.01,2013-06-15 17:07:00,
2013-06-15 13:12:00,80.7,54.8,30.03,West,280,1.0,13.0,41,0.00,,,0.00,VWS V14.01,2013-06-15 17:12:00,
2013-06-15 13:17:00,80.9,55.7,30.03,WSW,248,3.0,13.0,42,0.00,,,0.00,VWS V14.01,2013-06-15 17:17:00,
2013-06-15 13:22:00,80.9,55.7,30.03,WSW,248,0.0,13.0,42,0.00,,,0.00,VWS V14.01,2013-06-15 17:22:00,
2013-06-15 13:27:00,81.6,55.0,30.03,West,259,0.0,13.0,40,0.00,,,0.00,VWS V14.01,2013-06-15 17:27:00,
2013-06-15 13:32:00,82.2,56.2,30.03,WSW,238,1.0,13.0,41,0.00,,,0.00,VWS V14.01,2013-06-15 17:32:00,
2013-06-15 13:37:00,82.4,57.0,30.02,SW,223,1.0,13.0,42,0.00,,,0.00,VWS V14.01,2013-06-15 17:37:00,
2013-06-15 13:42:00,82.4,57.7,30.02,West,273,0.0,13.0,43,0.00,,,0.00,VWS V14.01,2013-06-15 17:42:00,
2013-06-15 13:48:00,82.0,56.7,30.02,WSW,242,2.0,13.0,42,0.00,,,0.00,VWS V14.01,2013-06-15 17:48:00,
2013-06-15 13:53:00,82.0,56.7,30.01,WSW,247,1.0,13.0,42,0.00,,,0.00,VWS V14.01,2013-06-15 17:53:00,
2013-06-15 13:58:00,81.6,55.6,30.01,WSW,242,0.0,13.0,41,0.00,,,0.00,VWS V14.01,2013-06-15 17:58:00,
2013-06-15 14:03:00,82.0,56.0,30.01,North,5,0.0,13.0,41,0.00,,,0.00,VWS V14.01,2013-06-15 18:03:00,
2013-06-15 14:08:00,82.0,57.3,30.01,NW,315,2.0,13.0,43,0.00,,,0.00,VWS V14.01,2013-06-15 18:08:00,
2013-06-15 14:13:00,82.0,57.3,30.01,WNW,296,1.0,13.0,43,0.00,,,0.00,VWS V14.01,2013-06-15 18:13:00,
2013-06-15 14:18:00,82.4,57.0,30.01,WNW,286,1.0,13.0,42,0.00,,,0.00,VWS V14.01,2013-06-15 18:18:00,
2013-06-15 14:23:00,82.6,55.2,30.01,NW,306,3.0,13.0,39,0.00,,,0.00,VWS V14.01,2013-06-15 18:23:00,
2013-06-15 14:28:00,82.2,56.8,30.01,SW,234,0.0,13.0,42,0.00,,,0.00,VWS V14.01,2013-06-15 18:28:00,
2013-06-15 14:33:00,81.6,56.3,30.01,WSW,238,1.0,13.0,42,0.00,,,0.00,VWS V14.01,2013-06-15 18:33:00,
2013-06-15 14:38:00,81.6,57.6,30.01,NW,313,3.0,13.0,44,0.00,,,0.00,VWS V14.01,2013-06-15 18:38:00,
2013-06-15 14:43:00,81.2,58.5,30.01,NW,304,3.0,13.0,46,0.00,,,0.00,VWS V14.01,2013-06-15 18:43:00,
2013-06-15 14:48:00,81.2,57.9,30.01,WSW,244,2.0,13.0,45,0.00,,,0.00,VWS V14.01,2013-06-15 18:48:00,
2013-06-15 14:53:00,80.5,57.8,30.00,SE,132,0.0,13.0,46,0.00,,,0.00,VWS V14.01,2013-06-15 18:53:00,
2013-06-15 14:58:00,80.3,55.8,30.00,WNW,298,1.0,13.0,43,0.00,,,0.00,VWS V14.01,2013-06-15 18:58:00,
2013-06-15 15:03:00,80.7,56.2,30.00,SSW,204,1.0,13.0,43,0.00,,,0.00,VWS V14.01,2013-06-15 19:03:00,
2013-06-15 15:08:00,80.9,55.7,30.00,WSW,241,1.0,13.0,42,0.00,,,0.00,VWS V14.01,2013-06-15 19:08:00,
2013-06-15 15:13:00,81.4,56.8,30.00,SW,226,2.0,13.0,43,0.00,,,0.00,VWS V14.01,2013-06-15 19:13:00,
2013-06-15 15:18:00,82.4,57.7,30.00,East,96,1.0,13.0,43,0.00,,,0.00,VWS V14.01,2013-06-15 19:18:00,
2013-06-15 15:23:00,82.8,56.0,30.00,West,280,0.0,13.0,40,0.00,,,0.00,VWS V14.01,2013-06-15 19:23:00,
2013-06-15 15:28:00,83.0,56.2,30.00,West,280,0.0,13.0,40,0.00,,,0.00,VWS V14.01,2013-06-15 19:28:00,
2013-06-15 15:34:00,82.2,57.5,30.00,SW,217,0.0,13.0,43,0.00,,,0.00,VWS V14.01,2013-06-15 19:34:00,
2013-06-15 15:39:00,81.8,58.4,30.00,WNW,289,0.0,13.0,45,0.00,,,0.00,VWS V14.01,2013-06-15 19:39:00,
2013-06-15 15:44:00,81.8,57.1,30.00,SW,225,0.0,13.0,43,0.00,,,0.00,VWS V14.01,2013-06-15 19:44:00,
2013-06-15 15:49:00,82.4,55.7,30.00,WNW,292,2.0,13.0,40,0.00,,,0.00,VWS V14.01,2013-06-15 19:49:00,
2013-06-15 15:54:00,83.2,56.4,30.00,WNW,292,1.0,13.0,40,0.00,,,0.00,VWS V14.01,2013-06-15 19:54:00,
2013-06-15 15:59:00,83.8,57.6,30.00,WSW,255,0.0,13.0,41,0.00,,,0.00,VWS V14.01,2013-06-15 19:59:00,
2013-06-15 16:04:00,84.0,56.4,30.00,NW,321,1.0,13.0,39,0.00,,,0.00,VWS V14.01,2013-06-15 20:04:00,
2013-06-15 16:09:00,84.1,57.2,29.99,West,275,1.0,13.0,40,0.00,,,0.00,VWS V14.01,2013-06-15 20:09:00,
2013-06-15 16:14:00,83.8,56.2,29.99,WSW,248,2.0,13.0,39,0.00,,,0.00,VWS V14.01,2013-06-15 20:14:00,
2013-06-15 16:19:00,83.8,56.9,29.99,WSW,248,0.0,13.0,40,0.00,,,0.00,VWS V14.01,2013-06-15 20:19:00,
2013-06-15 16:24:00,84.1,59.2,29.98,WNW,285,2.0,13.0,43,0.00,,,0.00,VWS V14.01,2013-06-15 20:24:00,
2013-06-15 16:29:00,83.2,58.4,29.98,WSW,251,3.0,13.0,43,0.00,,,0.00,VWS V14.01,2013-06-15 20:29:00,
2013-06-15 16:34:00,82.8,57.4,29.98,West,272,4.0,13.0,42,0.00,,,0.00,VWS V14.01,2013-06-15 20:34:00,
2013-06-15 16:39:00,82.8,57.4,29.98,NW,307,2.0,13.0,42,0.00,,,0.00,VWS V14.01,2013-06-15 20:39:00,
2013-06-15 16:44:00,83.0,58.9,29.98,West,274,2.0,13.0,44,0.00,,,0.00,VWS V14.01,2013-06-15 20:44:00,
2013-06-15 16:49:00,83.2,56.4,29.98,WSW,252,2.0,13.0,40,0.00,,,0.00,VWS V14.01,2013-06-15 20:49:00,
2013-06-15 16:54:00,83.4,57.9,29.98,WNW,294,0.0,13.0,42,0.00,,,0.00,VWS V14.01,2013-06-15 20:54:00,
2013-06-15 16:59:00,83.4,57.3,29.98,West,271,1.0,13.0,41,0.00,,,0.00,VWS V14.01,2013-06-15 20:59:00,
2013-06-15 17:04:00,83.4,58.6,29.98,West,275,2.0,13.0,43,0.00,,,0.00,VWS V14.01,2013-06-15 21:04:00,
2013-06-15 17:09:00,83.2,57.8,29.97,WNW,303,2.0,13.0,42,0.00,,,0.00,VWS V14.01,2013-06-15 21:09:00,
2013-06-15 17:14:00,83.0,57.6,29.97,WNW,289,2.0,13.0,42,0.00,,,0.00,VWS V14.01,2013-06-15 21:14:00,
2013-06-15 17:19:00,82.6,56.5,29.97,NE,42,0.0,13.0,41,0.00,,,0.00,VWS V14.01,2013-06-15 21:19:00,
2013-06-15 17:24:00,83.0,58.2,29.96,NE,42,1.0,13.0,43,0.00,,,0.00,VWS V14.01,2013-06-15 21:24:00,
2013-06-15 17:30:00,83.2,57.1,29.96,WSW,250,1.0,13.0,41,0.00,,,0.00,VWS V14.01,2013-06-15 21:30:00,
2013-06-15 17:35:00,83.2,57.8,29.96,WSW,254,1.0,13.0,42,0.00,,,0.00,VWS V14.01,2013-06-15 21:35:00,
2013-06-15 17:40:00,83.2,55.7,29.97,WSW,254,3.0,13.0,39,0.00,,,0.00,VWS V14.01,2013-06-15 21:40:00,
2013-06-15 17:45:00,83.0,57.6,29.97,WSW,247,2.0,13.0,42,0.00,,,0.00,VWS V14.01,2013-06-15 21:45:00,
2013-06-15 17:50:00,82.6,58.5,29.97,West,280,2.0,13.0,44,0.00,,,0.00,VWS V14.01,2013-06-15 21:50:00,
2013-06-15 17:55:00,82.6,56.5,29.96,WSW,250,0.0,13.0,41,0.00,,,0.00,VWS V14.01,2013-06-15 21:55:00,
2013-06-15 18:00:00,82.6,56.5,29.96,WSW,250,0.0,13.0,41,0.00,,,0.00,VWS V14.01,2013-06-15 22:00:00,
2013-06-15 18:05:00,82.4,57.7,29.96,West,277,0.0,13.0,43,0.00,,,0.00,VWS V14.01,2013-06-15 22:05:00,
2013-06-15 18:10:00,82.2,59.4,29.97,West,277,0.0,13.0,46,0.00,,,0.00,VWS V14.01,2013-06-15 22:10:00,
2013-06-15 18:15:00,82.2,58.8,29.97,West,277,0.0,13.0,45,0.00,,,0.00,VWS V14.01,2013-06-15 22:15:00,
2013-06-15 18:20:00,81.6,57.6,29.97,WSW,238,0.0,13.0,44,0.00,,,0.00,VWS V14.01,2013-06-15 22:20:00,
2013-06-15 18:25:00,81.4,58.0,29.97,SW,234,2.0,13.0,45,0.00,,,0.00,VWS V14.01,2013-06-15 22:25:00,
2013-06-15 18:30:00,81.1,57.2,29.97,SW,236,0.0,13.0,44,0.00,,,0.00,VWS V14.01,2013-06-15 22:30:00,
2013-06-15 18:35:00,80.7,56.8,29.97,SW,236,1.0,13.0,44,0.00,,,0.00,VWS V14.01,2013-06-15 22:35:00,
2013-06-15 18:40:00,80.1,56.9,29.96,WSW,239,0.0,13.0,45,0.00,,,0.00,VWS V14.01,2013-06-15 22:40:00,
2013-06-15 18:45:00,79.6,56.4,29.96,WSW,239,0.0,13.0,45,0.00,,,0.00,VWS V14.01,2013-06-15 22:45:00,
2013-06-15 18:50:00,79.4,58.0,29.96,WSW,239,0.0,13.0,48,0.00,,,0.00,VWS V14.01,2013-06-15 22:50:00,
2013-06-15 18:55:00,79.2,57.8,29.97,WSW,250,2.0,13.0,48,0.00,,,0.00,VWS V14.01,2013-06-15 22:55:00,
2013-06-15 19:00:00,78.8,58.6,29.97,WSW,251,1.0,13.0,50,0.00,,,0.00,VWS V14.01,2013-06-15 23:00:00,
2013-06-15 19:05:00,78.6,58.4,29.97,WSW,251,0.0,13.0,50,0.00,,,0.00,VWS V14.01,2013-06-15 23:05:00,
2013-06-15 19:10:00,78.5,57.2,29.97,WSW,251,0.0,13.0,48,0.00,,,0.00,VWS V14.01,2013-06-15 23:10:00,
2013-06-15 19:15:00,78.3,57.6,29.97,WSW,251,1.0,13.0,49,0.00,,,0.00,VWS V14.01,2013-06-15 23:15:00,
2013-06-15 19:20:00,78.1,58.0,29.97,WSW,251,0.0,13.0,50,0.00,,,0.00,VWS V14.01,2013-06-15 23:20:00,
2013-06-15 19:26:00,77.9,61.0,29.97,WSW,251,0.0,13.0,56,0.00,,,0.00,VWS V14.01,2013-06-15 23:26:00,
2013-06-15 19:31:00,77.6,62.2,29.97,WSW,251,0.0,13.0,59,0.00,,,0.00,VWS V14.01,2013-06-15 23:31:00,
2013-06-15 19:36:00,77.0,62.1,29.97,WSW,251,0.0,13.0,60,0.00,,,0.00,VWS V14.01,2013-06-15 23:36:00,
2013-06-15 19:41:00,76.3,61.4,29.97,WSW,251,0.0,13.0,60,0.00,,,0.00,VWS V14.01,2013-06-15 23:41:00,
2013-06-15 19:46:00,75.6,61.7,29.97,WSW,251,0.0,13.0,62,0.00,,,0.00,VWS V14.01,2013-06-15 23:46:00,
2013-06-15 19:51:00,75.1,61.7,29.97,WSW,251,0.0,13.0,63,0.00,,,0.00,VWS V14.01,2013-06-15 23:51:00,
2013-06-15 19:56:00,74.7,61.7,29.97,WSW,251,0.0,13.0,64,0.00,,,0.00,VWS V14.01,2013-06-15 23:56:00,
2013-06-15 20:01:00,74.2,61.7,29.97,WSW,251,0.0,13.0,65,0.00,,,0.00,VWS V14.01,2013-06-16 00:01:00,
2013-06-15 20:06:00,73.9,61.8,29.97,WSW,251,0.0,13.0,66,0.00,,,0.00,VWS V14.01,2013-06-16 00:06:00,
2013-06-15 20:11:00,73.5,61.5,29.97,WSW,251,0.0,13.0,66,0.00,,,0.00,VWS V14.01,2013-06-16 00:11:00,
2013-06-15 20:16:00,73.0,61.0,29.97,WSW,251,0.0,13.0,66,0.00,,,0.00,VWS V14.01,2013-06-16 00:16:00,
2013-06-15 20:21:00,72.7,61.5,29.96,WSW,251,0.0,13.0,68,0.00,,,0.00,VWS V14.01,2013-06-16 00:21:00,
2013-06-15 20:26:00,72.1,61.4,29.96,WSW,251,0.0,13.0,69,0.00,,,0.00,VWS V14.01,2013-06-16 00:26:00,
2013-06-15 20:31:00,71.5,61.2,29.96,WSW,251,0.0,13.0,70,0.00,,,0.00,VWS V14.01,2013-06-16 00:31:00,
2013-06-15 20:36:00,70.9,61.0,29.97,WSW,251,0.0,13.0,71,0.00,,,0.00,VWS V14.01,2013-06-16 00:36:00,
2013-06-15 20:41:00,70.4,61.3,29.97,WSW,251,0.0,13.0,73,0.00,,,0.00,VWS V14.01,2013-06-16 00:41:00,
2013-06-15 20:46:00,69.9,60.9,29.97,WSW,251,0.0,13.0,73,0.00,,,0.00,VWS V14.01,2013-06-16 00:46:00,
2013-06-15 20:51:00,69.4,60.8,29.97,WSW,251,0.0,13.0,74,0.00,,,0.00,VWS V14.01,2013-06-16 00:51:00,
2013-06-15 20:56:00,68.9,60.7,29.97,WSW,251,0.0,13.0,75,0.00,,,0.00,VWS V14.01,2013-06-16 00:56:00,
2013-06-15 21:01:00,68.4,60.9,29.97,WSW,251,0.0,13.0,77,0.00,,,0.00,VWS V14.01,2013-06-16 01:01:00,
2013-06-15 21:06:00,67.9,60.4,29.97,WSW,251,0.0,13.0,77,0.00,,,0.00,VWS V14.01,2013-06-16 01:06:00,
2013-06-15 21:11:00,67.6,60.9,29.97,WSW,251,0.0,13.0,79,0.00,,,0.00,VWS V14.01,2013-06-16 01:11:00,
2013-06-15 21:16:00,67.3,60.6,29.97,WSW,251,0.0,13.0,79,0.00,,,0.00,VWS V14.01,2013-06-16 01:16:00,
2013-06-15 21:22:00,66.9,60.5,29.97,WSW,251,0.0,13.0,80,0.00,,,0.00,VWS V14.01,2013-06-16 01:22:00,
2013-06-15 21:27:00,66.6,60.2,29.97,WSW,251,0.0,13.0,80,0.00,,,0.00,VWS V14.01,2013-06-16 01:27:00,
2013-06-15 21:32:00,66.3,60.0,29.97,WSW,251,0.0,13.0,80,0.00,,,0.00,VWS V14.01,2013-06-16 01:32:00,
2013-06-15 21:37:00,66.0,60.0,29.97,WSW,251,0.0,13.0,81,0.00,,,0.00,VWS V14.01,2013-06-16 01:37:00,
2013-06-15 21:42:00,65.6,59.6,29.97,WSW,251,0.0,13.0,81,0.00,,,0.00,VWS V14.01,2013-06-16 01:42:00,
2013-06-15 21:47:00,65.3,59.7,29.97,WSW,251,0.0,13.0,82,0.00,,,0.00,VWS V14.01,2013-06-16 01:47:00,
2013-06-15 21:52:00,65.0,59.4,29.98,WSW,251,0.0,13.0,82,0.00,,,0.00,VWS V14.01,2013-06-16 01:52:00,
2013-06-15 21:57:00,64.8,59.5,29.98,WSW,251,0.0,13.0,83,0.00,,,0.00,VWS V14.01,2013-06-16 01:57:00,
2013-06-15 22:02:00,64.7,59.4,29.98,WSW,251,0.0,13.0,83,0.00,,,0.00,VWS V14.01,2013-06-16 02:02:00,
2013-06-15 22:07:00,64.5,59.6,29.99,WSW,251,0.0,13.0,84,0.00,,,0.00,VWS V14.01,2013-06-16 02:07:00,
2013-06-15 22:12:00,64.5,59.6,29.99,WSW,251,0.0,13.0,84,0.00,,,0.00,VWS V14.01,2013-06-16 02:12:00,
2013-06-15 22:17:00,64.3,59.4,29.99,WSW,251,0.0,13.0,84,0.00,,,0.00,VWS V14.01,2013-06-16 02:17:00,
2013-06-15 22:22:00,64.0,59.1,29.99,WSW,251,0.0,13.0,84,0.00,,,0.00,VWS V14.01,2013-06-16 02:22:00,
2013-06-15 22:27:00,63.9,59.0,29.99,WSW,251,0.0,13.0,84,0.00,,,0.00,VWS V14.01,2013-06-16 02:27:00,
2013-06-15 22:32:00,63.7,58.8,29.99,WSW,251,0.0,13.0,84,0.00,,,0.00,VWS V14.01,2013-06-16 02:32:00,
2013-06-15 22:37:00,63.5,58.9,29.99,WSW,251,0.0,13.0,85,0.00,,,0.00,VWS V14.01,2013-06-16 02:37:00,
2013-06-15 22:42:00,63.4,58.8,29.99,WSW,251,0.0,13.0,85,0.00,,,0.00,VWS V14.01,2013-06-16 02:42:00,
2013-06-15 22:47:00,63.4,58.8,29.99,WSW,251,0.0,13.0,85,0.00,,,0.00,VWS V14.01,2013-06-16 02:47:00,
2013-06-15 22:52:00,63.2,58.6,30.00,WSW,251,0.0,13.0,85,0.00,,,0.00,VWS V14.01,2013-06-16 02:52:00,
2013-06-15 22:57:00,63.2,59.0,30.00,WSW,251,0.0,13.0,86,0.00,,,0.00,VWS V14.01,2013-06-16 02:57:00,
2013-06-15 23:02:00,63.1,58.8,30.00,WSW,251,0.0,13.0,86,0.00,,,0.00,VWS V14.01,2013-06-16 03:02:00,
2013-06-15 23:07:00,63.1,58.8,30.00,WSW,251,0.0,13.0,86,0.00,,,0.00,VWS V14.01,2013-06-16 03:07:00,
2013-06-15 23:12:00,62.9,58.7,30.00,WSW,251,0.0,13.0,86,0.00,,,0.00,VWS V14.01,2013-06-16 03:12:00,
2013-06-15 23:17:00,62.7,58.5,30.00,WSW,251,0.0,13.0,86,0.00,,,0.00,VWS V14.01,2013-06-16 03:17:00,
2013-06-15 23:23:00,62.7,58.5,29.98,WSW,251,0.0,13.0,86,0.00,,,0.00,VWS V14.01,2013-06-16 03:23:00,
2013-06-15 23:28:00,62.6,58.4,29.98,WSW,251,0.0,13.0,86,0.00,,,0.00,VWS V14.01,2013-06-16 03:28:00,
2013-06-15 23:33:00,62.4,58.5,29.98,WSW,251,0.0,13.0,87,0.00,,,0.00,VWS V14.01,2013-06-16 03:33:00,
2013-06-15 23:38:00,62.4,58.5,29.98,WSW,251,0.0,13.0,87,0.00,,,0.00,VWS V14.01,2013-06-16 03:38:00,
2013-06-15 23:43:00,62.3,58.4,29.98,WSW,251,0.0,13.0,87,0.00,,,0.00,VWS V14.01,2013-06-16 03:43:00,
2013-06-15 23:48:00,62.3,58.7,29.98,WSW,251,0.0,13.0,88,0.00,,,0.00,VWS V14.01,2013-06-16 03:48:00,
2013-06-15 23:53:00,62.1,58.5,29.98,WSW,251,0.0,13.0,88,0.00,,,0.00,VWS V14.01,2013-06-16 03:53:00,
2013-06-15 23:58:00,62.1,58.5,29.98,WSW,251,0.0,13.0,88,0.00,,,0.00,VWS V14.01,2013-06-16 03:58:00,